Regional Weather Roundup
Issued by NWS Grand Forks, ND

Home | Current Version | Previous Version | Text Only | Print | Product List | Glossary On
Versions: 1 2 3 4 5 6 7 8 9 10 11 12 13 14 15 16 17 18 19 20 21 22 23 24 25 26 27 28 29 30 31 32 33 34 35 36 37 38 39 40 41 42 43 44 45 46 47 48 49 50
000
ASUS43 KFGF 100831
RWRFGF
PRAIRIE TO PINES  WEATHER ROUNDUP
NATIONAL WEATHER SERVICE EASTERN NORTH DAKOTA/GRAND FORKS ND
300 AM CDT THU JUL 10 2014

 **SATELLITE DATA USED TO AUGMENT SKY COVER AT AUTOMATED STATIONS**
 *****  WEATHER ACROSS EASTERN NORTH DAKOTA  *****

CITY           SKY/WX    TMP DP  RH WIND       PRES   REMARKS
GRAND FORKS    CLEAR     57  51  80 S3        29.96S
GRAND FRKS AFB CLEAR     56  53  89 S6        29.96F
GRAND FRKS NWS   N/A     59 N/A N/A S5          N/A
DEVILS LAKE    CLEAR     63  52  67 S8        29.92S
FARGO          CLEAR     62  51  67 SE8       29.98S
WAHPETON ARPT  SUNNY     55  50  82 SE3       30.00S
$$

 ***** WEATHER ACROSS CENTRAL AND WESTERN NORTH DAKOTA  *****

CITY           SKY/WX    TMP DP  RH WIND       PRES   REMARKS
BISMARCK       CLEAR     63  57  81 SE6       29.94S
MINOT          CLEAR     63  58  83 SE7       29.85F
JAMESTOWN      CLEAR     59  55  87 S5        29.96F
MINOT AFB      CLEAR     61  61  99 SE7       29.84F
GARRISON         N/A     64  61  90 S9        29.89F
WILLISTON      PTCLDY    69  56  62 S8        29.80F
DICKINSON      CLEAR     62  54  74 S14       29.89S
HETTINGER      PTCLDY    58  53  84 SE6       29.94F
$$

 *****  OTHER AIRPORT OBSERVATIONS IN OUR AREA  *****

CITY           SKY/WX    TMP DP  RH WIND       PRES   REMARKS
WALHALLA         N/A     59  54  82 S9          N/A
GRAFTON AIRPOR FAIR      52  50  93 S6        29.95S
VALLEY CITY AR CLOUDY    55  55 100 S7        29.98S
CANDO          FAIR      57  55  94 S8        29.92F
CAVALIER APRT  FAIR      55  52  88 S7        29.94F
GWINNER        SUNNY     61  59  94 S3        30.00S
SHEYENNE NWR     N/A     54  51  90 CALM      29.95
ROLLA          CLOUDY    55  55 100 S7        29.93S
 ***** THE ABOVE OBSERVATIONS ARE NON NWS ARE NOT QUALITY
       CONTROLLED AND MAY MIS-REPORT RAIN FOR SNOW...
$$

  *****  WEATHER ACROSS NORTHERN MINNESOTA  *****

CITY           SKY/WX    TMP DP  RH WIND       PRES   REMARKS
FLAG ISLAND    CLEAR     61  57  88 S3        29.96S
WARROAD          N/A     54  50  87 S3        29.98F FOG
ROSEAU         CLEAR     52  46  82 CALM      29.97F
HALLOCK        CLEAR     55  52  88 SE6       29.95S
THF RVR FALLS  CLEAR     54  50  87 CALM      29.99S
BAUDETTE       CLEAR     53  49  86 CALM      30.00S
WASKISH        CLEAR     50  48  93 SE1       30.01R
CROOKSTON      CLEAR     55  52  88 SE7       29.98S
$$
  *****  WEATHER ACROSS CENTRAL AND WEST MINNESOTA  *****

CITY           SKY/WX    TMP DP  RH WIND       PRES   REMARKS
FOSSTON        CLEAR     50  46  87 CALM      30.00S
BEMIDJI        CLEAR     48  45  90 CALM      30.01S
PARK RAPIDS    CLEAR     53  52  96 CALM      30.01F
ELBOW LAKE     FAIR      59  52  77 SE6       30.01S
WADENA         CLEAR     48  48 100 CALM      30.02R
DETROIT LAKES  CLEAR     55  54  94 CALM      30.02S
MOORHEAD       CLEAR     61  55  82 SE5       29.99S
FERGUS FALLS   CLEAR     63  50  63 SE6       30.01S
MORRIS MN      CLEAR     55  54  94 SE5       30.01S
STAPLES        CLEAR     52  50  93 CALM      30.02S
$$
  *****  WEATHER ELSEWHERE ACROSS MINNESOTA  *****

CITY           SKY/WX    TMP DP  RH WIND       PRES   REMARKS
DULUTH         PTCLDY    57  48  72 S3        30.05R
INTRNTL FALLS  CLEAR     47  45  93 CALM      30.00S
ELY            PTCLDY    46  45  93 CALM      30.04S
CLOQUET        PTCLDY    54  50  87 CALM      30.05R
WHEATON        CLEAR     57  52  82 SE7       30.02S
BRAINERD       CLEAR     56  51  84 CALM      30.03S
HIBBING        FOG       47  45  93 CALM      30.04R VSB 1/2
ALEXANDRIA     CLEAR     57  53  86 CALM      30.03F
SAINT CLOUD    CLEAR     57  54  89 CALM      30.01S
MINNEAPOLIS    CLEAR     65  56  72 SE6       30.03R
$$

  *****  WEATHER ACROSS SOUTH DAKOTA  *****

CITY           SKY/WX    TMP DP  RH WIND       PRES   REMARKS
SIOUX FALLS    CLEAR     62  59  90 CALM      30.00F
BROOKINGS      NOT AVBL
WATERTOWN      CLEAR     60  52  74 SE3       30.01S
HURON          CLEAR     61  57  87 SE6       29.97S
SISSETON         N/A     58  55  90 CALM      29.99S
ABERDEEN       CLEAR     57  55  93 SE6       29.98S
MITCHELL       CLEAR     63  59  87 CALM      29.98F
PIERRE         CLEAR     56  53  90 E6        29.94F
MOBRIDGE       CLEAR     61  57  87 SW6       29.94S
RAPID CITY     MOCLDY    58  55  90 SE5       29.94F
$$

  *****  SOME WEATHER IN NEARBY STATES *****

CITY           SKY/WX    TMP DP  RH WIND       PRES   REMARKS
GLASGOW MT     MOCLDY    71  55  56 SE13      29.71F
GREAT FALLS MT PTCLDY    69  46  43 SW12      29.82S
CHEYENNE WY    MOCLDY    64  50  60 W7        30.08F
SCOTTSBLUFF NE CLEAR     63  61  93 NE7       29.94F
OMAHA NE       PTCLDY    68  61  78 SE8       30.00F
DES MOINES IA  PTCLDY    67  58  72 S8        30.04F
DAVENPORT IA   CLEAR     62  56  80 SE7       30.09S
CHICAGO IL     PTCLDY    60  54  80 CALM      30.10R
EAU CLAIRE WI  PTCLDY    56  54  93 CALM      30.06R
LA CROSSE WI   CLEAR     60  56  86 SE6       30.07R
$$

  *****  SOME NATIONAL WEATHER *****

CITY           SKY/WX    TMP DP  RH WIND       PRES   REMARKS
LA GUARDIA NY  CLOUDY    74  60  61 N5        29.98R
RALEIGH NC     CLOUDY    74  67  78 W3        30.01S
ATLANTA GA     MOCLDY    72  67  84 SW7       30.05S
NEW ORLEANS LA PTCLDY    75  71  87 SE3       30.06S
OKLAHOMA CITY  MOCLDY    75  69  81 SE9       29.98F
ALBUQUERQUE NM MOCLDY    71  54  54 N7        30.18F
SALT LAKE CITY CLOUDY    73  60  63 SE7       29.98S
LOS ANGELES CA CLOUDY    67  61  81 SW3       29.95F
BOISE ID       CLEAR     71  49  45 CALM      29.90S
SEATTLE WA     CLEAR     61  56  83 S6        29.97R
$$

*** WEATHER ACROSS MANITOBA...SASKATCHEWAN AND ONTARIO ***
                ***ONTARIO***

CITY           SKY/WX    TMP DP  RH WIND       PRES   REMARKS
GERALDTON      PTCLDY    48  45  87 CALM      30.02R
THUNDER BAY    PTCLDY    46  46 100 W5        30.04R
SIOUX LOOKOUT    N/A     45  45 100 S3        29.99S
TORONTO        PTCLDY    55  48  76 N3        30.07S
BIG TROUT LK   CLOUDY    59  52  77 SW3       29.85S
PICKLE LAKE    NOT AVBL
DRYDEN         CLEAR     55  48  76 S8        29.99S
KENORA         CLEAR     57  54  88 S6        29.98F
$$
                *** MANITOBA***

CITY           SKY/WX    TMP DP  RH WIND       PRES   REMARKS
BRANDON        CLEAR     59  55  88 SE7       29.88F
DAUPHIN        CLEAR     66  57  72 SW13G20   29.81F
ISLAND LAKE    LGT RAIN  63  54  72 W9        29.83R
PILOT MOUND      N/A     52  50  93 SE9         N/A
THE PAS        MOCLDY    66  59  77 S7        29.71S
THOMPSON       MOCLDY    57  57 100 E6        29.74S
WINNIPEG       CLEAR     59  50  72 S10       29.93F
LYNN LAKE      CLOUDY    61  55  82 E9        29.71F
CHURCHILL      FOG       45  45 100 NE10      29.81R VSB 1/4
GILLAM         PTCLDY    54  54 100 NE7       29.76S
$$
                ***SASKATCHEWAN***

CITY           SKY/WX    TMP DP  RH WIND       PRES   REMARKS
ESTEVAN        PTCLDY    64  59  82 S8        29.80F
KINDERSLEY     PTCLDY    63  55  77 NE22      29.68F
LLOYDMINSTER   CLOUDY    57  55  94 E5        29.71F
PRINCE ALBERT  TSTM      66  63  88 N10       29.62
REGINA         PTCLDY    63  59  88 SE18      29.72F
YORKTON        CLEAR     64  59  82 S9        29.77F
N. BATTLEFORD  NOT AVBL
LA RONGE       MOCLDY    64  57  77 CALM      29.63F
SASKATOON      PTCLDY    66  59  77 SW10      29.64R
SWIFT CURRENT  CLEAR     64  55  72 S15       29.66F
$$
NOTE: THESE ARE AUTOMATED STATIONS WITH LIMITED QUALITY CONTROL
      "FAIR" INDICATES FEW OR NO CLOUDS BELOW 12,000 FEET WITH NO
      SIGNIFICANT WEATHER AND/OR OBSTRUCTIONS TO VISIBILITY.
      SKY/WX - SKY CONDITION AND SIGNIFICANT WEATHER.
      TMP - AIR TEMPERATURE.    DP   - DEWPOINT TEMPERATURE.
      RH  - RELATIVE HUMIDITY.  PRES - PRESSURE.
      HX  - HEAT INDEX.         WCI  - WIND CHILL INDEX.
$


USA.gov is the U.S. government's official web portal to all federal, state and local government web resources and services.